Winnemucca, NV

11:18 AM PDT on May 23, 2017 (GMT -0700)
Winnemucca Municipal

Weather History for KWMC - November, 2012

Change the Weather History Date:

Thursday, November 15, 2012

  Actual Average Record
Temperature  
Mean Temperature 37 °F 37 °F  
Max Temperature 57 °F 52 °F 71 °F (2016)
Min Temperature 17 °F 23 °F -5 °F (1955)
Degree Days  
Heating Degree Days 28 28  
Month to date heating degree days 378 382  
Since 1 July heating degree days 917 1107  
Cooling Degree Days 0 0  
Month to date cooling degree days 0 0  
Year to date cooling degree days 681 541  
Moisture  
Dew Point 27 °F    
Average Humidity 65    
Maximum Humidity 96    
Minimum Humidity 33    
Precipitation  
Precipitation 0.00 in 0.03 in 0.26 in (1930)
Month to date precipitation T 0.42  
Year to date precipitation 3.94 6.89  
Snow  
Snow 0.00 in 0.10 in 2.50 in (1930)
Month to date snowfall T 1.0  
Since 1 July snowfall 1.3 1.5  
Since 1 September snowfall 1.3 1.5  
Snow Depth 0.00 in    
Sea Level Pressure  
Sea Level Pressure 30.13 in    
Wind  
Wind Speed 7 mph (East)    
Max Wind Speed 14 mph    
Max Gust Speed 17 mph    
Visibility 10 miles    
Events      
T = Trace of Precipitation, MM = Missing Value Source: NWS Daily Summary

Daily Weather History Graph

Daily Weather History Graph

Search for Another Location

Airport or City:

Trip Planner

Search our weather history database for the weather conditions in past years. The results will help you decide how hot, cold, wet, or windy it might be!

Date:

Astronomy

Nov. 15, 2012 Rise Set
Actual Time 6:39 AM PST 4:32 PM PST
Civil Twilight 6:09 AM PST 5:01 PM PST
Nautical Twilight 5:36 AM PST 5:35 PM PST
Astronomical Twilight 5:03 AM PST 6:07 PM PST
Moon 8:40 AM PST (11/15) 6:28 PM PST (11/15)
Length of Visible Light 10h 52m
Length of Day
9h 53m
Waxing Crescent, 5% of the Moon is Illuminated
Nov 15
Waxing Crescent
Nov 20
First Quarter
Nov 28
Full
Dec 6
Last Quarter
Dec 13
New

Hourly Weather History & Observations

Time (PST) Temp. Windchill Dew Point Humidity Pressure Visibility Wind Dir Wind Speed Gust Speed Precip Events Conditions
12:56 AM 27.0 °F 19.5 °F 24.1 °F 89% 30.22 in 10.0 mi SE 6.9 mph - N/A   Clear
1:56 AM 26.1 °F 19.4 °F 24.1 °F 92% 30.22 in 10.0 mi SE 5.8 mph - N/A   Clear
2:56 AM 24.1 °F 16.0 °F 21.9 °F 91% 30.21 in 10.0 mi SE 6.9 mph - N/A   Clear
3:56 AM 23.0 °F 17.0 °F 21.0 °F 92% 30.21 in 10.0 mi SSE 4.6 mph - N/A   Clear
4:56 AM 23.0 °F 13.1 °F 21.9 °F 96% 30.23 in 10.0 mi ESE 9.2 mph - N/A   Clear
5:56 AM 19.0 °F 9.0 °F 18.0 °F 96% 30.26 in 10.0 mi SSE 8.1 mph - N/A   Clear
6:56 AM 19.0 °F 10.0 °F 17.1 °F 92% 30.26 in 10.0 mi ESE 6.9 mph - N/A   Clear
7:56 AM 27.0 °F 21.6 °F 24.1 °F 89% 30.24 in 10.0 mi ESE 4.6 mph - N/A   Clear
8:56 AM 37.0 °F 29.3 °F 30.9 °F 79% 30.21 in 10.0 mi ENE 11.5 mph - N/A   Clear
9:56 AM 43.0 °F 37.2 °F 33.1 °F 68% 30.19 in 10.0 mi NE 10.4 mph - N/A   Clear
10:56 AM 48.0 °F - 32.0 °F 54% 30.16 in 10.0 mi ENE 8.1 mph - N/A   Clear
11:56 AM 53.1 °F - 30.9 °F 43% 30.11 in 10.0 mi NE 3.5 mph - N/A   Clear
12:56 PM 55.0 °F - 30.0 °F 38% 30.12 in 10.0 mi NE 6.9 mph - N/A   Clear
1:56 PM 57.0 °F - 28.9 °F 34% 30.08 in 10.0 mi NNE 4.6 mph - N/A   Clear
2:56 PM 57.0 °F - 30.0 °F 36% 30.06 in 10.0 mi NE 11.5 mph - N/A   Clear
3:56 PM 54.0 °F - 30.0 °F 40% 30.07 in 10.0 mi NNE 10.4 mph - N/A   Clear
4:56 PM 48.0 °F - 30.9 °F 52% 30.07 in 10.0 mi NE 8.1 mph - N/A   Clear
5:56 PM 48.0 °F - 30.0 °F 50% 30.07 in 10.0 mi ENE 9.2 mph - N/A   Clear
6:56 PM 48.0 °F - 30.0 °F 50% 30.06 in 10.0 mi ENE 10.4 mph - N/A   Clear
7:56 PM 43.0 °F - 28.0 °F 56% 30.08 in 10.0 mi Calm Calm - N/A   Mostly Cloudy
8:56 PM 42.1 °F - 28.0 °F 58% 30.04 in 10.0 mi Calm Calm - N/A   Clear
9:56 PM 39.9 °F - 28.0 °F 63% 30.03 in 10.0 mi Calm Calm - N/A   Clear
10:56 PM 41.0 °F 36.4 °F 28.0 °F 60% 30.02 in 10.0 mi SSE 6.9 mph - N/A   Overcast
11:56 PM 42.1 °F 40.2 °F 28.0 °F 58% 30.00 in 10.0 mi NNE 3.5 mph - N/A   Overcast